Tracking 30308 objects as of 19-Apr-2025
HD Live streaming from Space Station
objects crossing your sky now

GLOBALSTAR M031

Track GLOBALSTAR M031 now!
10-day predictions
GLOBALSTAR M031 is classified as:


NORAD ID: 25946
Int'l Code: 1999-058D
Perigee: 1,615.4 km
Apogee: 1,618.6 km
Inclination: 52.0 °
Period: 118.4 minutes
Semi major axis: 7987 km
RCS: 2.5697 m2 (large)
Launch date: October 18, 1999
Source: Globalstar (GLOB)
Launch site: TYURATAM MISSILE AND SPACE COMPLEX (TTMTR)
Your satellite tracking list
Your tracking list is empty




NASA's NSSDC Master Catalog

Two Line Element Set (TLE):
1 25946U 99058D   25107.85228582  .00000015  00000-0  10703-2 0  9991
2 25946  51.9953 269.8504 0001994  76.7541  71.4827 12.16034254157209
Source of the keplerian elements: AFSPC